[[{"header":{"parameterUnit":"m.s-1","parameterCategory":1,"la1":30.2991,"la2":30.254,"lo1":-89.0895,"lo2":-89.0444,"dy":0.0017,"dx":0.0017,"nx":28,"ny":28,"refTime":"2025-02-28T09:00:00:Z","depth":0,"parameterNumber":2,"parameterNumberName":"U-component_of_WINDS"},"data":[0,0,0,0,0,0,0,0,0,0,0,0,0,0,0,0,0,0,0,0,0,0,0,0,0,0,0,0,0,0,0,0,0,0,0,0,0,0,0,0,0,0,0,0,0,0,0,0,0,0,0,0,0,0,0,0,0,0,1.0175,1.0174,0,1.0117,1.0116,1.0116,1.0074,1.0074,1.0074,1.0074,1.0008,1.0006,1.0005,0,0,0,0,0,0,0,0,0,0,0,0,0,1.0246,1.0245,1.0175,1.0174,1.0174,1.0117,1.0116,1.0115,1.0075,1.0074,1.0074,1.0073,1.0008,1.0006,1.0004,0,0,0,0,0,0,0,0,0,0,0,0,0,1.0204,1.0244,1.0175,1.0147,1.0143,1.0117,1.0116,1.0115,1.0075,1.0074,1.0074,1.0073,1.0009,1.0006,1.0004,1.0,0,0,0.9998,0.9997,0,0,0,0,0,0,0,0,1.0206,1.0201,1.0151,1.0148,1.0145,1.0103,1.0117,1.0076,1.0075,1.0101,1.0074,1.0073,1.0039,1.0034,1.0024,0.9997,0.9994,0.9997,0.9996,0.9995,0.9994,0,0,0,0,0,0,0,1.0209,1.0204,1.0152,1.0151,1.0147,1.0135,1.0129,1.0109,1.0073,1.0098,1.0095,1.0089,1.0037,1.0026,1.0022,0.9993,0.9997,0.9995,0.9994,0.9993,0.9959,0.996,0,0,0,0,0,0,1.0217,1.0206,1.0154,1.015,1.0175,1.0134,1.0127,1.0117,1.0073,1.0066,1.009,1.0087,1.003,1.0025,1.002,1.0012,0.9995,0.9993,0.9992,0.9959,0.9959,0.996,0,0,0,0,0,0,1.0219,1.0213,1.0156,1.0177,1.0169,1.0133,1.0122,1.0116,1.0105,1.0067,1.0059,1.0086,1.003,1.0023,1.0006,1.0009,0.9992,0.999,0.9958,0.9959,0.996,0.9996,0,0,0,0,0,0,1.0221,1.0214,1.0213,1.0178,1.0168,1.0144,1.0122,1.0115,1.0102,1.0099,1.0061,1.0054,1.0029,1.0009,1.0004,1.0006,0.9988,0.9958,0.9959,0.9959,0.9994,0.9998,1.0001,0,0,0,0,0,1.0224,1.0224,1.0213,1.0207,1.0167,1.0145,1.0139,1.0112,1.0103,1.01,1.0076,1.0055,1.001,1.0008,1.0001,1.0003,0.9957,0.9958,0.9959,0.9993,0.9997,1.0001,0,0,0,0,0,0,1.0258,1.0219,1.0206,1.0195,1.0174,1.0138,1.0134,1.0117,1.0096,1.0094,1.0059,1.0051,1.0037,1.0018,1.0016,0.9996,0.9981,0.9981,1.0009,1.0013,1.0016,1.002,0.9986,0,0,0,0,0,1.0265,1.0252,1.0218,1.0211,1.0202,1.017,1.0159,1.0141,1.0116,1.0106,1.0081,1.0056,1.0036,1.0024,1.0003,0.9992,0.9983,0.999,0.9993,0.9996,0.9996,0.9988,0.9991,0.9963,0.9963,0.9963,0,0,1.0277,1.0254,1.0248,1.0218,1.0199,1.0185,1.0162,1.0148,1.0137,1.0103,1.0086,1.0067,1.0037,1.0023,1.0015,1.0006,1.0002,0.9997,1.0,0.9998,0.9989,0.9992,0.9994,0.9964,0.9964,0.9963,0,0,1.0293,1.0275,1.0268,1.025,1.0223,1.0203,1.0201,1.0168,1.0155,1.0138,1.0112,1.0098,1.0064,1.0044,1.003,1.0041,1.0021,1.0035,1.0051,1.0045,1.0047,1.0048,1.0052,1.0053,1.0035,1.0035,1.0035,0,1.0311,1.0291,1.0266,1.0254,1.0241,1.0213,1.0205,1.0188,1.0155,1.0146,1.0138,1.0096,1.0074,1.0055,1.0058,1.0048,1.0044,1.0038,1.0049,1.005,1.0052,1.0054,1.0056,1.0037,1.0037,1.0037,1.0036,0,1.0315,1.0302,1.0299,1.027,1.0257,1.0247,1.0219,1.0208,1.0192,1.0172,1.0154,1.0128,1.0102,1.0096,1.0078,1.0074,1.007,1.0056,1.004,1.0057,1.0058,1.0059,1.004,1.0039,1.0038,1.0038,0,0,1.0348,1.0308,1.0307,1.0294,1.0263,1.0251,1.024,1.0217,1.0209,1.0187,1.0176,1.015,1.0137,1.0121,1.0101,1.0095,1.0105,1.0081,1.008,1.0086,1.0099,1.0109,1.0111,1.0093,1.0093,1.0093,1.0101,0,1.0358,1.0339,1.0316,1.0303,1.029,1.0264,1.0254,1.0234,1.0215,1.02,1.0179,1.0161,1.0146,1.0136,1.0129,1.0105,1.0107,1.0105,1.008,1.0079,1.0087,1.0112,1.0122,1.0131,1.0102,1.0102,1.0102,0,1.0367,1.035,1.0337,1.0308,1.0302,1.0293,1.0271,1.0258,1.0233,1.022,1.0204,1.0183,1.0169,1.0156,1.0135,1.0134,1.0123,1.011,1.0109,1.0104,1.0091,1.0106,1.0133,1.0134,1.0103,1.0103,1.0103,0,1.0392,1.0365,1.0354,1.0344,1.031,1.0305,1.029,1.0266,1.0254,1.0234,1.0226,1.0204,1.0192,1.0174,1.0148,1.0141,1.0129,1.0114,1.0117,1.0117,1.0114,1.0114,1.0138,1.0109,1.0109,1.0109,1.0109,0,1.0405,1.0397,1.0365,1.0357,1.0348,1.0323,1.0314,1.0297,1.0276,1.0264,1.024,1.0228,1.0195,1.018,1.0159,1.0144,1.0139,1.0127,1.0121,1.0128,1.013,1.0119,1.0117,1.0109,1.0109,1.0109,1.0109,0,1.043,1.0408,1.0394,1.0365,1.0357,1.0352,1.0326,1.0317,1.0299,1.0284,1.0279,1.0249,1.0229,1.0202,1.0174,1.016,1.0148,1.014,1.0157,1.0153,1.0157,1.0156,1.0173,1.0174,1.0146,1.0147,1.0147,0,1.0439,1.0433,1.0404,1.0396,1.0383,1.0369,1.0358,1.0332,1.0321,1.0294,1.0289,1.0269,1.0251,1.0221,1.0195,1.0174,1.0164,1.0172,1.016,1.0168,1.0163,1.0163,1.0162,1.0174,1.0174,1.0174,1.0175,0,1.0457,1.0447,1.0433,1.0415,1.0402,1.0386,1.0369,1.0363,1.0334,1.0322,1.0304,1.029,1.0263,1.0243,1.0218,1.0201,1.0183,1.0179,1.0178,1.0184,1.0195,1.0188,1.0163,1.0178,1.0178,1.0177,1.0177,1.0177,1.0473,1.0467,1.0447,1.0431,1.0417,1.0402,1.0393,1.0374,1.0359,1.0336,1.0322,1.0304,1.0281,1.0246,1.0231,1.0215,1.0208,1.0206,1.0206,1.0206,1.0208,1.0199,1.0211,1.0211,1.021,1.021,1.021,0,1.049,1.0476,1.0462,1.044,1.0428,1.0415,1.0396,1.0386,1.0372,1.0352,1.0337,1.0315,1.0296,1.027,1.0249,1.0241,1.0232,1.0237,1.0236,1.0232,1.0217,1.0219,1.0244,1.0244,1.0244,1.0244,1.0244,1.0244,1.0497,1.0486,1.0474,1.0455,1.044,1.0425,1.0415,1.04,1.0385,1.0364,1.0348,1.0333,1.0311,1.0288,1.0269,1.0262,1.0254,1.0261,1.0251,1.0236,1.0233,1.023,1.0232,1.026,1.026,1.0268,1.0268,1.0268]},{"header":{"parameterUnit":"m.s-1","parameterCategory":1,"la1":30.2991,"la2":30.254,"lo1":-89.0895,"lo2":-89.0444,"dy":0.0017,"dx":0.0017,"nx":28,"ny":28,"refTime":"2025-02-28T09:00:00:Z","depth":0,"parameterNumber":3,"parameterNumberName":"V-component_of_WINDS"},"data":[0,0,0,0,0,0,0,0,0,0,0,0,0,0,0,0,0,0,0,0,0,0,0,0,0,0,0,0,0,0,0,0,0,0,0,0,0,0,0,0,0,0,0,0,0,0,0,0,0,0,0,0,0,0,0,0,0,0,-6.587,-6.587,0,-6.593,-6.593,-6.5931,-6.5846,-6.5843,-6.584,-6.5837,-6.5896,-6.59,-6.5905,0,0,0,0,0,0,0,0,0,0,0,0,0,-6.5681,-6.5685,-6.587,-6.587,-6.5871,-6.5929,-6.593,-6.5931,-6.5847,-6.5843,-6.5839,-6.5836,-6.5895,-6.59,-6.5905,0,0,0,0,0,0,0,0,0,0,0,0,0,-6.5754,-6.5686,-6.5869,-6.5836,-6.5834,-6.5929,-6.593,-6.5931,-6.5847,-6.5843,-6.5838,-6.5834,-6.5893,-6.5899,-6.5906,-6.6036,0,0,-6.5926,-6.5929,0,0,0,0,0,0,0,0,-6.575,-6.5761,-6.584,-6.5838,-6.5836,-6.5876,-6.5885,-6.5967,-6.5848,-6.5842,-6.5837,-6.5832,-6.5893,-6.5899,-6.592,-6.6039,-6.6042,-6.5927,-6.593,-6.5933,-6.5935,0,0,0,0,0,0,0,-6.5745,-6.5758,-6.5893,-6.5841,-6.5839,-6.5818,-6.5823,-6.59,-6.5892,-6.5842,-6.5836,-6.5845,-6.5891,-6.5914,-6.5921,-6.6043,-6.5926,-6.5932,-6.5936,-6.5939,-6.6273,-6.6278,0,0,0,0,0,0,-6.5744,-6.5754,-6.5891,-6.5895,-6.5781,-6.5825,-6.5831,-6.5867,-6.5891,-6.589,-6.5848,-6.584,-6.5905,-6.5913,-6.5923,-6.6078,-6.5933,-6.5939,-6.5943,-6.6268,-6.6274,-6.628,0,0,0,0,0,0,-6.574,-6.5757,-6.5889,-6.5823,-6.5838,-6.5833,-6.5875,-6.5871,-6.5894,-6.5896,-6.5893,-6.5874,-6.5902,-6.5913,-6.6009,-6.6079,-6.5942,-6.5948,-6.6262,-6.627,-6.6277,-6.6389,0,0,0,0,0,0,-6.5735,-6.5756,-6.5806,-6.5825,-6.5842,-6.5975,-6.5879,-6.5875,-6.5906,-6.5896,-6.5919,-6.5918,-6.5899,-6.6,-6.6016,-6.6085,-6.5953,-6.6256,-6.6266,-6.6275,-6.6379,-6.64,-6.6417,0,0,0,0,0,-6.5729,-6.5834,-6.5809,-6.5826,-6.5904,-6.5979,-6.5989,-6.5966,-6.5912,-6.5962,-6.5963,-6.5917,-6.6069,-6.6011,-6.6028,-6.61,-6.6252,-6.6263,-6.6274,-6.6371,-6.6396,-6.6417,0,0,0,0,0,0,-6.5823,-6.5836,-6.5808,-6.5923,-6.5951,-6.5965,-6.6027,-6.5993,-6.6035,-6.6024,-6.5993,-6.5999,-6.6102,-6.611,-6.6045,-6.6229,-6.6151,-6.6166,-6.6219,-6.6243,-6.6261,-6.6257,-6.5959,0,0,0,0,0,-6.5857,-6.5917,-6.5926,-6.6026,-6.6042,-6.6033,-6.6064,-6.6044,-6.6071,-6.6082,-6.609,-6.6118,-6.6171,-6.6207,-6.6257,-6.638,-6.6384,-6.6439,-6.6458,-6.6473,-6.6486,-6.6553,-6.6578,-6.6316,-6.6316,-6.6316,0,0,-6.5928,-6.5943,-6.5982,-6.6046,-6.6065,-6.6128,-6.6043,-6.6113,-6.6159,-6.6092,-6.6184,-6.6191,-6.622,-6.6331,-6.6379,-6.6341,-6.656,-6.6487,-6.65,-6.6505,-6.6567,-6.6592,-6.6614,-6.6324,-6.6322,-6.6321,0,0,-6.6089,-6.6107,-6.6193,-6.6215,-6.6245,-6.6239,-6.626,-6.628,-6.6282,-6.6374,-6.6325,-6.638,-6.6473,-6.6496,-6.652,-6.6693,-6.6652,-6.6709,-6.6808,-6.6873,-6.6894,-6.6912,-6.6974,-6.6997,-6.6723,-6.6723,-6.6723,0,-6.6173,-6.6267,-6.6241,-6.6316,-6.6345,-6.6289,-6.6377,-6.6398,-6.6444,-6.6465,-6.6421,-6.6538,-6.6553,-6.6669,-6.6712,-6.6733,-6.6756,-6.6706,-6.6893,-6.6911,-6.6928,-6.6987,-6.701,-6.673,-6.6729,-6.6728,-6.6728,0,-6.6369,-6.6435,-6.6501,-6.6548,-6.6585,-6.6665,-6.6652,-6.6692,-6.6669,-6.6667,-6.6762,-6.6779,-6.6831,-6.6857,-6.6835,-6.697,-6.6945,-6.6898,-6.682,-6.696,-6.7015,-6.7037,-6.674,-6.6737,-6.6735,-6.6733,0,0,-6.659,-6.6624,-6.6648,-6.6669,-6.67,-6.675,-6.6828,-6.6881,-6.6916,-6.695,-6.7015,-6.7096,-6.7053,-6.708,-6.706,-6.7118,-6.7255,-6.7063,-6.7063,-6.7099,-6.7406,-6.7441,-6.7468,-6.7228,-6.7233,-6.7236,-6.7403,0,-6.6752,-6.6889,-6.6869,-6.7,-6.7061,-6.7009,-6.7078,-6.7104,-6.7105,-6.7156,-6.7156,-6.7215,-6.7153,-6.7169,-6.7224,-6.7226,-6.7316,-6.7214,-6.7288,-6.7291,-6.7283,-6.7496,-6.7534,-6.7691,-6.7425,-6.7428,-6.7431,0,-6.6959,-6.7002,-6.714,-6.7162,-6.7187,-6.7249,-6.7296,-6.7346,-6.7375,-6.7372,-6.7404,-6.7373,-6.7451,-6.7373,-6.748,-6.7411,-6.744,-6.7446,-6.7452,-6.7458,-6.7369,-6.7508,-6.774,-6.7764,-6.7464,-6.7461,-6.7459,0,-6.7108,-6.7199,-6.7294,-6.7314,-6.7342,-6.7387,-6.7401,-6.7425,-6.7459,-6.75,-6.7521,-6.7571,-6.7598,-6.7637,-6.7621,-6.7565,-6.7732,-6.7651,-6.7731,-6.7732,-6.7768,-6.7766,-6.8009,-6.7787,-6.7787,-6.7787,-6.7786,0,-6.7291,-6.7377,-6.7361,-6.742,-6.7515,-6.7491,-6.7586,-6.7594,-6.7617,-6.7675,-6.7633,-6.7689,-6.7665,-6.7719,-6.7707,-6.7798,-6.7811,-6.781,-6.7806,-6.7814,-6.7814,-6.7832,-6.7821,-6.7793,-6.7791,-6.779,-6.7789,0,-6.7472,-6.7465,-6.7565,-6.7585,-6.7592,-6.7661,-6.7678,-6.7733,-6.7731,-6.7805,-6.7822,-6.7818,-6.788,-6.7869,-6.7936,-6.7928,-6.8043,-6.8025,-6.8033,-6.8029,-6.811,-6.8103,-6.8373,-6.8407,-6.8164,-6.8166,-6.8168,0,-6.7589,-6.7655,-6.7683,-6.772,-6.7737,-6.7797,-6.7831,-6.7811,-6.7848,-6.7887,-6.7938,-6.7996,-6.8041,-6.8142,-6.8146,-6.8198,-6.8181,-6.8272,-6.8188,-6.8195,-6.8183,-6.8179,-6.8186,-6.8288,-6.8291,-6.8293,-6.8295,0,-6.7799,-6.7793,-6.7844,-6.7896,-6.7938,-6.7977,-6.8012,-6.8045,-6.8027,-6.8072,-6.8135,-6.8171,-6.8241,-6.8299,-6.8348,-6.8361,-6.8326,-6.8322,-6.8343,-6.8352,-6.8354,-6.8355,-6.8079,-6.8315,-6.8313,-6.8312,-6.8311,-6.831,-6.7952,-6.8008,-6.8037,-6.8096,-6.8121,-6.8155,-6.8208,-6.8213,-6.8266,-6.8323,-6.8307,-6.8379,-6.8407,-6.8469,-6.8489,-6.8545,-6.851,-6.8541,-6.8549,-6.8557,-6.8567,-6.8346,-6.8553,-6.8553,-6.8552,-6.8551,-6.8551,0,-6.8159,-6.8176,-6.8231,-6.8282,-6.8329,-6.8293,-6.833,-6.8371,-6.8436,-6.8466,-6.8512,-6.8585,-6.8642,-6.8651,-6.8705,-6.8748,-6.8733,-6.8763,-6.876,-6.8763,-6.8594,-6.857,-6.8774,-6.8774,-6.8774,-6.8774,-6.8774,-6.8774,-6.8273,-6.8367,-6.8364,-6.847,-6.8485,-6.8557,-6.8582,-6.8613,-6.8637,-6.8721,-6.8769,-6.8774,-6.8796,-6.8851,-6.8902,-6.8903,-6.8925,-6.8961,-6.8956,-6.8797,-6.8775,-6.8754,-6.8732,-6.8966,-6.8966,-6.9121,-6.9122,-6.9123]}]]